Location: Hains Lake
(37.8540°N, 99.8578°W)
Time: 14:08:25
(UTC+00:00)

Transit 2A - Pass Details

Date: 22 April 2021
Orbit: 602 x 957 km, 66.7° (Epoch: 13 May)

Event Time Altitude Azimuth Distance (km) Brightness Sun altitude
Rises 22:07:02 0° 332° (NNW) 2,889 9.1 37.2°
Reaches altitude 10° 22:09:14 10° 334° (NNW) 2,005 8.4 36.8°
Maximum altitude 22:13:44 82° 63° (ENE) 668 6.2 35.9°
Drops below altitude 10° 22:18:36 10° 150° (SSE) 2,160 8.3 35.0°
Sets 22:21:03 0° 151° (SSE) 3,133 9.0 34.5°
